Regional Weather Roundup
Issued by NWS Kansas City/Pleasant Hill, MO

Home | Current Version | Previous Version | Graphics & Text | Print | Product List | Glossary Off
Versions: 1 2 3 4 5 6 7 8 9 10 11 12 13 14 15 16 17 18 19 20 21 22 23 24 25 26 27 28

000
ASUS43 KEAX 040110
RWREAX

WEATHER ROUNDUP FOR EASTERN KANSAS AND NORTHWEST MISSOURI
NATIONAL WEATHER SERVICE KANSAS CITY/PLEASANT HILL MO
800 PM CDT TUE MAY 03 2016

KSZ040-057-103>105-MOZ028-029-037-043-040200-
...KANSAS CITY METROPOLITAN AREA...

CITY           SKY/WX    TMP DP  RH WIND       PRES   REMARKS
K.C. INTL      PTCLDY    63  42  46 NW5       29.94F
K.C. DOWNTOWN  CLEAR     67  41  38 W3        29.93S
LEES SUMMIT    CLEAR     65  41  41 W3        29.95F
OLATHE - IXD   CLEAR     65  43  44 W6        29.95F
OLATHE - OJC   CLEAR     64  42  44 W5        29.95S
LAWRENCE       CLEAR     64  45  49 W6        29.94F

$$

MOZ001>008-011>017-020>025-030>033-038>040-044>046-053-054-040200-
...NORTHERN AND CENTRAL MISSOURI...

CITY           SKY/WX    TMP DP  RH WIND       PRES   REMARKS
ST. JOSEPH     MOCLDY    64  44  48 W7        29.93F
MOSBY          CLEAR     64  41  42 CALM      29.93S
WARRENSBURG    CLEAR     63  43  48 SW5       29.94S
WHITEMAN AFB   PTCLDY    62  42  47 SW3       29.93F
CLINTON        CLEAR     63  45  51 CALM      29.96F
SEDALIA        CLEAR     63  42  46 W3        29.95F
WARSAW         NOT AVBL
CHILLICOTHE      N/A     64  43  46 CALM      29.93S
KIRKSVILLE     CLEAR     62  41  46 W6        29.90F

$$

MOZ041-047>049-056>058-063>065-088>090-097-040200-
...EASTERN AND SOUTHERN MISSOURI...

CITY           SKY/WX    TMP DP  RH WIND       PRES   REMARKS
ST. LOUIS INTL PTCLDY    61  43  51 SW7       29.93F
SPIRIT OF STL  PTCLDY    58  46  64 S3        29.92F
COLUMBIA       PTCLDY    60  43  53 W6        29.93F
JEFFERSON CITY PTCLDY    63  40  42 W6        29.94S
ROLLA          CLEAR     55  40  56 W5        29.94F
OSAGE BEACH    CLEAR     59  37  44 CALM      29.96S
SPRINGFIELD    CLEAR     61  40  45 W6        29.98F
BRANSON        CLEAR     59  39  47 NW5       30.00F
JOPLIN         CLEAR     63  45  51 SW3       29.99F
WEST PLAINS    CLEAR     59  38  45 NW5       29.98S

$$

IAZ060-094-KSZ022-034>040-054-083-096-NEZ052-066-093-040200-
...KANSAS...SOUTHEAST NEBRASKA AND IOWA...

CITY           SKY/WX    TMP DP  RH WIND       PRES   REMARKS
TOPEKA         CLEAR     67  42  40 W3        29.94F
MANHATTAN      PTCLDY    65  44  46 CALM      29.95F
EMPORIA        PTCLDY    63  48  58 SW5       29.96S
CHANUTE        MOCLDY    65  49  56 SW3       29.97F
WICHITA        PTCLDY    66  48  52 SW6       29.98S
OMAHA          PTCLDY    68  42  38 NW10      29.88F
LINCOLN        CLEAR     69  40  34 W8        29.93F
FALLS CITY     CLEAR     64  43  46 W7        29.92F
LAMONI         CLEAR     61  45  55 W8        29.89F
DES MOINES     MOCLDY    65  42  43 W8        29.83F

$$





USA.gov is the U.S. government's official web portal to all federal, state and local government web resources and services.